Powrót do katalogu

STARLINK-32520

AktywnyŁącznośćVLEO
NORAD 62021·PAYLOAD·🇺🇸 United States

Wystrzelony Nov 18, 2024 z Vandenberg Space Force Base

Loading…

Następne Przeloty (najbliższe 24 godziny)

TLE

ŚwieżeSource: CelesTrak SupGP

Epoka: Sep 14, 2026, 23:02 UTC

1 62021C 24213P   26257.96020833 -.00007877  00000+0 -23281-3 0  2572
2 62021  53.1596   7.3736 0001241  83.3980 350.5754 15.34382377    10

Śledź STARLINK-32520 w czasie rzeczywistym z AllMySat

Download on the App Store